Location: Hillern
(53.0557°N, 9.8577°E)
Time: 20:20:12
(UTC+00:00)

Meteor 1-18 Rocket - Pass Details

Date: 19 May 2025
Orbit: 836 x 907 km, 81.2° (Epoch: 20 June)

Event Time Altitude Azimuth Distance (km) Brightness Sun altitude
Exits shadow 23:14:39 27° 191° (S) 1,644 5.1 -17.0°
Maximum altitude 23:18:00 89° 103° (ESE) 900 4.3 -17.0°
Drops below altitude 10° 23:23:56 10° 14° (NNE) 2,592 8.0 -16.9°
Sets 23:26:26 0° 14° (NNE) 3,543 9.0 -16.9°
